Location: Buckland
(65.9785°N, 161.1281°W)
Time: 13:26:01
(UTC+00:00)

SPROUT - Pass Details

Date: 17 January 2021
Orbit: 597 x 609 km, 97.9° (Epoch: 05 March)

Event Time Altitude Azimuth Distance (km) Brightness Sun altitude
Exits shadow 06:52:41 10° 358° (N) 1,955 ? -30.7°
Drops below altitude 10° 06:52:46 10° 356° (N) 1,970 ? -30.7°
Sets 06:56:13 0° 327° (NNW) 2,884 ? -31.0°
